CW4352 Weather Reports


time (UTC)temp
F
wind
direction
speed
knots
gust
knots
rain 1hr
in
rain 24hr
in
rain mn
in
humidity
%
barometer
mb
20260906101205 85 47 0.9 2.6 0.00 0.00 0.00 54 1017.1
20260906094205 84 15 1.7 2.6 0.00 0.00 0.00 55 1017.3
20260906090705 84 23 1.7 5.2 0.00 0.00 0.00 54 1016.9
20260906081707 83 350 0.9 2.6 0.00 0.00 0.00 54 1016.9
20260906081205 83 350 0.9 4.3 0.00 0.00 0.00 54 1016.9
20260906080705 82 350 0.9 2.6 0.00 0.00 0.00 56 1016.9
20260906080205 82 350 0.9 2.6 0.00 0.00 0.00 56 1016.9
20260906074705 81 323 0.9 2.6 0.00 0.00 0.00 56 1016.5
20260906074205 81 323 0.9 2.6 0.00 0.00 0.00 57 1016.5
20260906073705 80 323 0.9 4.3 0.00 0.00 0.00 57 1016.5
20260906073205 80 323 1.7 2.6 0.00 0.00 0.00 58 1016.5
20260906071705 79 323 0.0 1.7 0.00 0.00 0.00 61 1016.5
20260906071205 78 323 0.0 0.9 0.00 0.00 0.00 59 1016.5
20260906064705 75 321 0.0 1.7 0.00 0.00 0.00 60 1016.5
20260906064205 74 321 0.0 0.0 0.00 0.00 0.00 62 1016.4
20260906063705 74 321 0.0 0.0 0.00 0.00 0.00 64 1016.4
20260906063207 73 321 0.0 0.0 0.00 0.00 0.00 65 1016.4
20260906061705 71 321 0.0 0.9 0.00 0.00 0.00 68 1016.4
20260906061205 71 321 0.0 0.0 0.00 0.00 0.00 69 1016.4
20260906060205 70 321 0.0 1.7 0.00 0.00 0.00 69 1015.9
20260906051204 69 321 0.0 1.7 0.00 0.00 0.00 70 1015.9
20260906044205 69 321 0.0 0.9 0.00 0.00 0.00 68 1015.8
20260906043205 69 321 0.0 1.7 0.00 0.00 0.00 67 1015.8
20260906041705 69 321 0.0 1.7 0.00 0.00 0.00 68 1015.3
20260906040205 69 321 0.9 2.6 0.00 0.00 0.00 68 1015.3
20260906034705 69 321 0.0 1.7 0.00 0.00 0.00 67 1015.1
20260906034205 70 321 0.0 0.9 0.00 0.00 0.00 67 1015.1
20260906033705 70 321 0.0 0.9 0.00 0.00 0.00 67 1015.1
20260906033204 70 321 0.0 0.0 0.00 0.00 0.00 66 1015.1
20260906031205 70 321 0.0 0.0 0.00 0.00 0.00 64 1014.8
20260906024705 72 321 0.0 0.0 0.00 0.00 0.00 61 1014.8
20260906024205 72 321 0.0 0.0 0.00 0.00 0.00 61 1014.8
20260906023204 72 321 0.0 0.0 0.00 0.00 0.00 59 1014.7
20260906021704 73 321 0.0 0.0 0.00 0.00 0.00 59 1014.7
20260906020705 73 321 0.0 0.9 0.00 0.00 0.00 60 1014.7
20260906014705 74 321 0.0 1.7 0.00 0.00 0.00 58 1014.5
20260906014204 74 321 0.0 0.9 0.00 0.00 0.00 57 1014.5
20260906013705 74 321 0.0 1.7 0.00 0.00 0.00 57 1014.3
20260906013204 74 321 0.9 1.7 0.00 0.00 0.00 57 1014.3
20260906011204 75 321 1.7 2.6 0.00 0.00 0.00 55 1014.3
20260906010205 75 321 0.9 2.6 0.00 0.00 0.00 55 1014.3
20260906003205 76 321 1.7 2.6 0.00 0.00 0.00 55 1014.1
20260906001705 76 321 1.7 4.3 0.00 0.00 0.00 55 1014.1
20260905234705 76 321 0.9 2.6 0.00 0.00 0.00 53 1014.2
20260905234204 77 321 0.9 2.6 0.00 0.00 0.00 54 1014.2
20260905233705 77 321 0.9 2.6 0.00 0.00 0.00 54 1014.2
20260905231705 77 321 1.7 2.6 0.00 0.00 0.00 53 1013.9
20260905223704 78 321 0.9 1.7 0.00 0.00 0.00 51 1013.2
20260905223204 78 321 0.9 2.6 0.00 0.00 0.00 51 1013.2
20260905221205 79 321 0.9 2.6 0.00 0.00 0.00 49 1013.2
20260905220705 79 321 1.7 2.6 0.00 0.00 0.00 49 1013.2
20260905220205 79 321 1.7 2.6 0.00 0.00 0.00 49 1013.2
20260905214704 80 321 0.9 4.3 0.00 0.00 0.00 47 1013.2
20260905214205 80 321 1.7 2.6 0.00 0.00 0.00 47 1013.2
20260905213704 80 321 2.6 2.6 0.00 0.00 0.00 47 1012.7
20260905213204 80 321 1.7 4.3 0.00 0.00 0.00 46 1012.7
20260905211705 80 321 2.6 4.3 0.00 0.00 0.00 45 1012.7
20260905211205 80 321 3.5 6.1 0.00 0.00 0.00 45 1012.7
20260905210704 80 348 1.7 2.6 0.00 0.00 0.00 46 1012.7
20260905204704 80 355 1.7 2.6 0.00 0.00 0.00 45 1012.7
20260905203704 81 355 1.7 2.6 0.00 0.00 0.00 43 1012.7
20260905203205 81 355 0.9 1.7 0.00 0.00 0.00 41 1012.7
20260905201204 81 355 0.9 1.7 0.00 0.00 0.00 39 1012.7
20260905200205 81 355 0.9 1.7 0.00 0.00 0.00 39 1012.7
20260905194705 81 355 0.0 0.9 0.00 0.00 0.00 38 1011.2
20260905194204 82 355 0.9 1.7 0.00 0.00 0.00 39 1011.2
20260905191205 83 355 0.0 0.0 0.00 0.00 0.00 37 1011.2
20260905190705 83 355 0.9 1.7 0.00 0.00 0.00 37 1011.2
20260905183705 85 355 0.0 0.0 0.00 0.00 0.00 35 1011.2
20260905183205 85 355 0.0 1.7 0.00 0.00 0.00 33 1011.2
20260905181705 87 355 0.0 0.0 0.00 0.00 0.00 32 1011.2
20260905180704 88 355 0.0 0.9 0.00 0.00 0.00 31 1011.2
20260905174704 91 355 0.0 0.0 0.00 0.00 0.00 28 1011.1
20260905170204 93 355 0.9 2.6 0.00 0.00 0.00 25 1011.0
20260905164704 94 355 0.9 2.6 0.00 0.00 0.00 25 1011.0
20260905164205 94 355 0.9 2.6 0.00 0.00 0.00 24 1010.6
20260905163204 95 355 1.7 4.3 0.00 0.00 0.00 24 1010.6
20260905160705 96 29 0.9 2.6 0.00 0.00 0.00 24 1010.6
20260905160204 96 29 0.9 2.6 0.00 0.00 0.00 24 1010.6
20260905154704 96 39 0.9 2.6 0.00 0.00 0.00 23 1010.6
20260905153704 96 39 1.7 2.6 0.00 0.00 0.00 24 1010.6
20260905153205 96 39 0.9 2.6 0.00 0.00 0.00 24 1010.6
20260905151205 95 42 1.7 4.3 0.00 0.00 0.00 24 1010.8
20260905150704 95 40 2.6 4.3 0.00 0.00 0.00 24 1010.8
20260905144204 95 0 1.7 2.6 0.00 0.00 0.00 24 1011.1
20260905143204 96 48 1.7 4.3 0.00 0.00 0.00 24 1011.1
20260905141704 96 31 1.7 6.1 0.00 0.00 0.00 25 1011.3
20260905141205 96 15 1.7 2.6 0.00 0.00 0.00 24 1011.3
20260905140704 95 14 0.9 1.7 0.00 0.00 0.00 24 1011.3
20260905134704 94 11 0.9 2.6 0.00 0.00 0.00 25 1011.3
20260905133705 94 22 0.9 4.3 0.00 0.00 0.00 25 1011.6
20260905131705 93 3 1.7 4.3 0.00 0.00 0.00 25 1011.6
20260905131204 93 6 0.9 2.6 0.00 0.00 0.00 25 1011.6
20260905130704 93 30 1.7 5.2 0.00 0.00 0.00 25 1011.6
20260905124204 93 14 1.7 7.8 0.00 0.00 0.00 26 1012.1
20260905121204 92 49 0.9 5.2 0.00 0.00 0.00 25 1012.2
20260905120704 92 341 2.6 7.0 0.00 0.00 0.00 25 1012.2
20260905114704 92 23 1.7 4.3 0.00 0.00 0.00 26 1012.2
20260905114204 92 13 1.7 6.1 0.00 0.00 0.00 25 1012.2
20260905113704 92 23 1.7 2.6 0.00 0.00 0.00 25 1012.2
20260905113204 91 30 1.7 8.7 0.00 0.00 0.00 25 1012.2
20260905111204 90 30 1.7 4.3 0.00 0.00 0.00 25 1012.7
20260905110704 90 24 1.7 2.6 0.00 0.00 0.00 26 1012.7
20260905110205 90 19 1.7 4.3 0.00 0.00 0.00 25 1012.7
20260905104704 90 43 1.7 4.3 0.00 0.00 0.00 26 1012.7
20260905104204 90 45 1.7 4.3 0.00 0.00 0.00 26 1012.7
20260905103704 90 33 0.9 4.3 0.00 0.00 0.00 26 1012.7